This is the latest recevied weather packets stored in our database for station/object K5UBE. If no packets are shown the sender has not sent any weather packets the latest 10 day(s).
| Time | Temp. | Humidity | Pressure | Rain* | Wind** | Luminosity | Snow |
|---|---|---|---|---|---|---|---|
| 1777436048 | 18.89° C | 14% | 1017.8 hPa | 0 mm | - | - | - |
| 1777435745 | 18.33° C | 14% | 1017.8 hPa | 0 mm | - | - | - |
| 1777435441 | 17.78° C | 15% | 1017.8 hPa | 0 mm | - | - | - |
| 1777435136 | 17.78° C | 15% | 1017.5 hPa | 0 mm | - | - | - |
| 1777434831 | 17.78° C | 15% | 1017.6 hPa | 0 mm | - | - | - |
| 1777434531 | 18.89° C | 14% | 1017.5 hPa | 0 mm | - | - | - |
| 1777434228 | 18.89° C | 14% | 1017.3 hPa | 0 mm | - | - | - |
| 1777433925 | 18.89° C | 13% | 1017.4 hPa | 0 mm | - | - | - |
| 1777433622 | 18.89° C | 14% | 1017.4 hPa | 0 mm | - | - | - |
| 1777433317 | 19.44° C | 13% | 1017.5 hPa | 0 mm | - | - | - |
| 1777433014 | 20° C | 13% | 1017.6 hPa | 0 mm | - | - | - |
| 1777432709 | 19.44° C | 13% | 1017.5 hPa | 0 mm | - | - | - |
| 1777432405 | 18.89° C | 14% | 1017.3 hPa | 0 mm | - | - | - |
| 1777432100 | 20° C | 13% | 1017.2 hPa | 0 mm | - | - | - |
| 1777431795 | 21.11° C | 12% | 1017.4 hPa | 0 mm | - | - | - |
| 1777431491 | 21.11° C | 12% | 1017.2 hPa | 0 mm | - | - | - |
| 1777431188 | 21.11° C | 12% | 1017 hPa | 0 mm | - | - | - |
| 1777430883 | 21.11° C | 12% | 1017.2 hPa | 0 mm | - | - | - |
| 1777430580 | 21.11° C | 12% | 1017.2 hPa | 0 mm | - | - | - |
| 1777430275 | 20.56° C | 12% | 1017 hPa | 0 mm | - | - | - |
| 1777429970 | 21.11° C | 11% | 1016.8 hPa | 0 mm | - | - | - |
| 1777429668 | 21.11° C | 11% | 1017.1 hPa | 0 mm | - | - | - |
| 1777429364 | 21.67° C | 11% | 1016.8 hPa | 0 mm | - | - | - |
| 1777429059 | 22.22° C | 11% | 1016.8 hPa | 0 mm | - | - | - |
| 1777428756 | 21.67° C | 11% | 1016.6 hPa | 0 mm | - | - | - |
* Rain latest hour (hover to see other rain measurements)
** Current wind speed in m/s (hover to see current wind gust speed)